Puerto Banus, Marbella

>

This is an optional block (switch it off / on) in the settings - file ($SITE['banners'] = false;)

You can display ads, any other important text or photo’s using text / html or PHP code.

You can place one or more at the top and or bottom and it can all be different for content / size .



Meteosat more information blitzortung!


Radar lluvias  rain snow radar


Visita nuestra red de sitios de meteo:

Documentation for the template used

MeteoibericaRed estaciones Meteorologicas

MeteoclimaticRed estaciones Meteorologicas



Sin Advertencias climatologicas .En este momento tenemos Nivel Verde.    No hay Alarmas

Pagina Historial Weather Underground texto

Diario Resumen January 2, 2017 Unidades:  Métrico    impérial   Tanto
« Anterior Dia
Siguiente Dia »
Diario Semana Mensual Anual Personalizada
  Maxima: Minima: Media:
Temperatura: 15.0 °C 9.7 °C 12.3 °C
Punto de rocío: 11.0 °C 6.6 °C 8.6 °C
Humedad: 83 % 68 % 78 %
Velocidad del Viento: 24.1 km/h 4.8 km/h 15.1 km/h
Ráfagas de viento: 24.1 km/h - -
Viento:- - SSE
Pression baro: 1023.6 hPa 1019.2 hPa -
Précipitaciones: 0.0 mm    
Historical Graphs
 
 
Datos de tabla para January 2, 2017
Tiempo Temperatura Punto de rocío Pression baro Viento Velocidad del Viento Ráfagas de viento Humedad Las precipitaciones Rate ( Hora )
00:00 11.3 °C 8.1 °C 1021.9 hPa North 9.7 km/h 9.7 km/h 81 % 0.0 mm
00:05 11.2 °C 8.1 °C 1021.6 hPa North 9.3 km/h 9.3 km/h 81 % 0.0 mm
00:10 11.2 °C 8.0 °C 1021.6 hPa North 11.1 km/h 11.1 km/h 81 % 0.0 mm
00:15 11.1 °C 7.9 °C 1021.6 hPa North 11.1 km/h 11.1 km/h 81 % 0.0 mm
00:20 11.0 °C 7.9 °C 1021.6 hPa North 12.9 km/h 12.9 km/h 81 % 0.0 mm
00:25 10.9 °C 7.8 °C 1021.6 hPa North 13.0 km/h 13.0 km/h 81 % 0.0 mm
00:30 10.8 °C 7.9 °C 1021.6 hPa North 12.9 km/h 12.9 km/h 82 % 0.0 mm
00:35 10.8 °C 7.8 °C 1021.6 hPa North 11.3 km/h 14.5 km/h 82 % 0.0 mm
00:40 10.7 °C 7.8 °C 1021.6 hPa North 13.0 km/h 13.0 km/h 82 % 0.0 mm
00:45 10.6 °C 7.7 °C 1021.6 hPa North 14.8 km/h 14.8 km/h 82 % 0.0 mm
00:50 10.6 °C 7.7 °C 1021.6 hPa NNW 13.0 km/h 13.0 km/h 82 % 0.0 mm
00:55 10.6 °C 7.6 °C 1021.6 hPa North 8.0 km/h 12.9 km/h 82 % 0.0 mm
01:00 10.6 °C 7.6 °C 1021.6 hPa North 9.3 km/h 9.3 km/h 82 % 0.0 mm
01:05 10.5 °C 7.6 °C 1021.6 hPa North 11.3 km/h 14.5 km/h 82 % 0.0 mm
01:10 10.5 °C 7.6 °C 1021.2 hPa North 16.7 km/h 16.7 km/h 82 % 0.0 mm
01:15 10.4 °C 7.4 °C 1021.2 hPa North 13.0 km/h 13.0 km/h 82 % 0.0 mm
01:20 10.3 °C 7.4 °C 1021.2 hPa North 13.0 km/h 13.0 km/h 82 % 0.0 mm
01:25 10.3 °C 7.4 °C 1021.2 hPa North 9.7 km/h 14.5 km/h 82 % 0.0 mm
01:30 10.3 °C 7.3 °C 1021.2 hPa North 14.8 km/h 14.8 km/h 82 % 0.0 mm
01:35 10.3 °C 7.3 °C 1021.2 hPa North 11.3 km/h 16.1 km/h 82 % 0.0 mm
01:40 10.3 °C 7.2 °C 1020.9 hPa North 14.8 km/h 14.8 km/h 81 % 0.0 mm
01:45 10.3 °C 7.3 °C 1020.9 hPa North 11.3 km/h 16.1 km/h 82 % 0.0 mm
01:50 10.2 °C 7.3 °C 1020.9 hPa North 14.8 km/h 14.8 km/h 82 % 0.0 mm
01:55 10.2 °C 7.2 °C 1020.9 hPa North 14.8 km/h 14.8 km/h 82 % 0.0 mm
02:00 10.1 °C 7.2 °C 1020.5 hPa NNW 16.7 km/h 16.7 km/h 82 % 0.0 mm
02:05 10.1 °C 7.2 °C 1020.9 hPa North 11.3 km/h 16.1 km/h 82 % 0.0 mm
02:10 10.1 °C 7.1 °C 1020.5 hPa North 14.8 km/h 14.8 km/h 82 % 0.0 mm
02:15 10.1 °C 7.1 °C 1020.5 hPa North 9.7 km/h 16.1 km/h 82 % 0.0 mm
02:20 10.1 °C 6.9 °C 1020.5 hPa North 14.8 km/h 14.8 km/h 81 % 0.0 mm
02:25 10.1 °C 6.9 °C 1020.5 hPa North 16.7 km/h 16.7 km/h 81 % 0.0 mm
02:30 10.1 °C 6.9 °C 1020.5 hPa North 14.8 km/h 14.8 km/h 81 % 0.0 mm
02:35 10.1 °C 6.9 °C 1020.5 hPa North 12.9 km/h 16.1 km/h 81 % 0.0 mm
02:40 10.1 °C 6.9 °C 1020.5 hPa North 14.8 km/h 14.8 km/h 81 % 0.0 mm
02:45 10.0 °C 6.9 °C 1020.5 hPa North 16.7 km/h 16.7 km/h 81 % 0.0 mm
02:50 9.9 °C 6.8 °C 1020.5 hPa North 14.8 km/h 14.8 km/h 81 % 0.0 mm
02:55 9.9 °C 6.8 °C 1020.5 hPa NNE 16.7 km/h 16.7 km/h 81 % 0.0 mm
03:00 9.9 °C 6.8 °C 1020.5 hPa North 12.9 km/h 16.1 km/h 81 % 0.0 mm
03:05 9.8 °C 6.7 °C 1020.5 hPa North 16.7 km/h 16.7 km/h 81 % 0.0 mm
03:10 9.8 °C 6.7 °C 1020.5 hPa North 14.8 km/h 14.8 km/h 81 % 0.0 mm
03:15 9.8 °C 6.7 °C 1020.5 hPa North 11.3 km/h 19.3 km/h 81 % 0.0 mm
03:20 9.8 °C 6.7 °C 1020.5 hPa North 13.0 km/h 13.0 km/h 81 % 0.0 mm
03:25 9.8 °C 6.7 °C 1020.5 hPa North 12.9 km/h 16.1 km/h 81 % 0.0 mm
03:30 9.8 °C 6.7 °C 1020.5 hPa North 11.3 km/h 16.1 km/h 81 % 0.0 mm
03:35 9.7 °C 6.6 °C 1020.5 hPa North 13.0 km/h 13.0 km/h 81 % 0.0 mm
03:40 9.7 °C 6.6 °C 1020.5 hPa North 16.7 km/h 16.7 km/h 81 % 0.0 mm
03:45 9.7 °C 6.6 °C 1020.5 hPa North 13.0 km/h 13.0 km/h 81 % 0.0 mm
03:50 9.7 °C 6.6 °C 1020.2 hPa North 18.5 km/h 18.5 km/h 81 % 0.0 mm
03:55 9.7 °C 6.6 °C 1020.2 hPa North 14.5 km/h 19.3 km/h 81 % 0.0 mm
04:00 9.7 °C 6.6 °C 1020.2 hPa North 18.5 km/h 18.5 km/h 81 % 0.0 mm
04:05 9.7 °C 6.6 °C 1020.5 hPa North 12.9 km/h 19.3 km/h 81 % 0.0 mm
04:10 9.7 °C 6.6 °C 1020.2 hPa North 18.5 km/h 18.5 km/h 81 % 0.0 mm
04:15 9.7 °C 6.6 °C 1020.2 hPa NNW 16.7 km/h 16.7 km/h 81 % 0.0 mm
04:20 9.7 °C 6.6 °C 1020.2 hPa North 19.3 km/h 19.3 km/h 81 % 0.0 mm
04:25 9.7 °C 6.6 °C 1020.2 hPa North 16.7 km/h 16.7 km/h 81 % 0.0 mm
04:30 9.7 °C 6.6 °C 1020.2 hPa NNE 18.5 km/h 18.5 km/h 81 % 0.0 mm
04:35 9.7 °C 6.6 °C 1019.9 hPa North 12.9 km/h 19.3 km/h 81 % 0.0 mm
04:40 9.7 °C 6.6 °C 1019.9 hPa North 18.5 km/h 18.5 km/h 81 % 0.0 mm
04:45 9.8 °C 6.7 °C 1019.9 hPa North 12.9 km/h 19.3 km/h 81 % 0.0 mm
04:50 9.8 °C 6.7 °C 1019.9 hPa North 16.7 km/h 16.7 km/h 81 % 0.0 mm
04:55 9.8 °C 6.7 °C 1019.9 hPa North 18.5 km/h 18.5 km/h 81 % 0.0 mm
05:00 9.9 °C 6.8 °C 1019.9 hPa North 16.7 km/h 16.7 km/h 81 % 0.0 mm
05:05 9.9 °C 6.7 °C 1019.9 hPa North 11.3 km/h 16.1 km/h 80 % 0.0 mm
05:10 9.9 °C 6.7 °C 1019.9 hPa North 14.8 km/h 14.8 km/h 80 % 0.0 mm
05:15 10.0 °C 6.7 °C 1019.9 hPa North 14.5 km/h 19.3 km/h 80 % 0.0 mm
05:20 10.1 °C 6.8 °C 1019.9 hPa NNW 18.5 km/h 18.5 km/h 80 % 0.0 mm
05:25 10.1 °C 6.7 °C 1019.9 hPa North 14.5 km/h 16.1 km/h 79 % 0.0 mm
05:30 10.2 °C 6.7 °C 1019.9 hPa North 14.5 km/h 19.3 km/h 79 % 0.0 mm
05:35 10.2 °C 6.7 °C 1019.9 hPa North 12.9 km/h 19.3 km/h 79 % 0.0 mm
05:40 10.2 °C 6.7 °C 1019.5 hPa North 18.5 km/h 18.5 km/h 79 % 0.0 mm
05:45 10.2 °C 6.7 °C 1019.5 hPa North 12.9 km/h 19.3 km/h 79 % 0.0 mm
05:50 10.2 °C 6.7 °C 1019.5 hPa North 12.9 km/h 16.1 km/h 79 % 0.0 mm
05:55 10.2 °C 6.7 °C 1019.5 hPa North 20.4 km/h 20.4 km/h 79 % 0.0 mm
06:00 10.2 °C 6.7 °C 1019.5 hPa North 12.9 km/h 19.3 km/h 79 % 0.0 mm
06:05 10.3 °C 6.8 °C 1019.5 hPa North 13.0 km/h 13.0 km/h 79 % 0.0 mm
06:10 10.3 °C 6.8 °C 1019.2 hPa North 12.9 km/h 16.1 km/h 79 % 0.0 mm
06:15 10.3 °C 6.8 °C 1019.2 hPa North 12.9 km/h 16.1 km/h 79 % 0.0 mm
06:20 10.3 °C 6.8 °C 1019.2 hPa North 13.0 km/h 13.0 km/h 79 % 0.0 mm
06:25 10.3 °C 6.8 °C 1019.5 hPa North 9.7 km/h 14.5 km/h 79 % 0.0 mm
06:30 10.4 °C 6.9 °C 1019.5 hPa NNE 13.0 km/h 13.0 km/h 79 % 0.0 mm
06:35 10.5 °C 7.0 °C 1019.2 hPa NNE 13.0 km/h 13.0 km/h 79 % 0.0 mm
06:40 10.6 °C 6.9 °C 1019.5 hPa North 11.3 km/h 16.1 km/h 78 % 0.0 mm
06:45 10.6 °C 6.9 °C 1019.5 hPa North 14.8 km/h 14.8 km/h 78 % 0.0 mm
06:50 10.7 °C 7.0 °C 1019.5 hPa NNE 14.8 km/h 14.8 km/h 78 % 0.0 mm
06:55 10.7 °C 7.0 °C 1019.5 hPa North 13.0 km/h 13.0 km/h 78 % 0.0 mm
07:00 10.7 °C 7.0 °C 1019.5 hPa North 14.8 km/h 14.8 km/h 78 % 0.0 mm
07:05 10.7 °C 7.0 °C 1019.5 hPa North 11.3 km/h 19.3 km/h 78 % 0.0 mm
07:10 10.7 °C 7.0 °C 1019.5 hPa North 9.7 km/h 14.5 km/h 78 % 0.0 mm
07:15 10.7 °C 7.1 °C 1019.5 hPa NNE 13.0 km/h 13.0 km/h 78 % 0.0 mm
07:20 10.8 °C 7.1 °C 1019.5 hPa NNE 14.8 km/h 14.8 km/h 78 % 0.0 mm
07:25 10.8 °C 7.2 °C 1019.5 hPa North 9.7 km/h 14.5 km/h 78 % 0.0 mm
07:30 10.8 °C 7.2 °C 1019.5 hPa North 9.7 km/h 9.7 km/h 78 % 0.0 mm
07:35 10.8 °C 7.2 °C 1019.5 hPa North 11.3 km/h 14.5 km/h 78 % 0.0 mm
07:40 10.8 °C 7.1 °C 1019.5 hPa North 9.7 km/h 12.9 km/h 78 % 0.0 mm
07:45 10.8 °C 7.2 °C 1019.9 hPa North 9.7 km/h 12.9 km/h 78 % 0.0 mm
07:50 10.9 °C 7.2 °C 1019.9 hPa North 18.5 km/h 18.5 km/h 78 % 0.0 mm
07:55 10.9 °C 7.2 °C 1019.9 hPa NNE 14.8 km/h 14.8 km/h 78 % 0.0 mm
08:00 10.9 °C 7.3 °C 1019.9 hPa North 11.1 km/h 11.1 km/h 78 % 0.0 mm
08:05 10.9 °C 7.3 °C 1020.2 hPa North 13.0 km/h 13.0 km/h 78 % 0.0 mm
08:10 10.9 °C 7.3 °C 1019.9 hPa North 14.8 km/h 14.8 km/h 78 % 0.0 mm
08:15 10.9 °C 7.3 °C 1019.5 hPa NNE 11.3 km/h 16.1 km/h 78 % 0.0 mm
08:20 10.9 °C 7.2 °C 1019.9 hPa North 13.0 km/h 13.0 km/h 78 % 0.0 mm
08:25 10.9 °C 7.2 °C 1020.2 hPa North 13.0 km/h 13.0 km/h 78 % 0.0 mm
08:30 10.9 °C 7.2 °C 1019.9 hPa North 14.5 km/h 14.5 km/h 78 % 0.0 mm
08:35 11.0 °C 7.3 °C 1019.9 hPa North 11.3 km/h 19.3 km/h 78 % 0.0 mm
08:40 11.1 °C 7.4 °C 1020.2 hPa NNE 12.9 km/h 12.9 km/h 78 % 0.0 mm
08:45 11.1 °C 7.4 °C 1019.9 hPa North 12.9 km/h 19.3 km/h 78 % 0.0 mm
08:50 11.2 °C 7.4 °C 1019.9 hPa North 14.8 km/h 14.8 km/h 78 % 0.0 mm
08:55 11.2 °C 7.5 °C 1020.2 hPa North 9.7 km/h 14.5 km/h 78 % 0.0 mm
09:00 11.3 °C 7.6 °C 1020.2 hPa North 11.3 km/h 14.5 km/h 78 % 0.0 mm
09:05 11.4 °C 7.7 °C 1020.2 hPa North 11.3 km/h 11.3 km/h 78 % 0.0 mm
09:10 11.5 °C 7.8 °C 1020.2 hPa North 14.8 km/h 14.8 km/h 78 % 0.0 mm
09:15 11.6 °C 7.7 °C 1020.2 hPa North 9.7 km/h 14.5 km/h 77 % 0.0 mm
09:20 11.7 °C 7.8 °C 1020.5 hPa North 13.0 km/h 13.0 km/h 77 % 0.0 mm
09:25 11.7 °C 7.8 °C 1020.5 hPa North 8.0 km/h 12.9 km/h 77 % 0.0 mm
09:30 11.7 °C 7.8 °C 1020.5 hPa North 11.3 km/h 12.9 km/h 77 % 0.0 mm
09:35 11.7 °C 7.8 °C 1020.5 hPa North 9.7 km/h 12.9 km/h 77 % 0.0 mm
09:40 11.8 °C 7.9 °C 1020.5 hPa North 11.3 km/h 11.3 km/h 77 % 0.0 mm
09:45 11.8 °C 7.9 °C 1020.5 hPa North 9.7 km/h 14.5 km/h 77 % 0.0 mm
09:50 12.3 °C 8.8 °C 1020.5 hPa ENE 16.1 km/h 16.1 km/h 79 % 0.0 mm
09:55 12.7 °C 9.0 °C 1020.9 hPa NE 4.8 km/h 19.3 km/h 78 % 0.0 mm
10:00 12.9 °C 9.4 °C 1020.9 hPa ENE 12.9 km/h 16.1 km/h 79 % 0.0 mm
10:05 13.4 °C 9.7 °C 1020.9 hPa East 16.7 km/h 16.7 km/h 78 % 0.0 mm
10:10 13.7 °C 9.9 °C 1020.9 hPa East 14.5 km/h 20.9 km/h 78 % 0.0 mm
10:15 13.7 °C 9.6 °C 1020.9 hPa ENE 14.5 km/h 20.9 km/h 76 % 0.0 mm
10:20 13.8 °C 9.6 °C 1020.9 hPa East 18.5 km/h 18.5 km/h 76 % 0.0 mm
10:25 13.8 °C 9.7 °C 1020.9 hPa East 14.5 km/h 20.9 km/h 76 % 0.0 mm
10:30 13.9 °C 9.7 °C 1021.2 hPa East 18.5 km/h 18.5 km/h 76 % 0.0 mm
10:35 13.9 °C 9.6 °C 1021.2 hPa East 14.5 km/h 19.3 km/h 75 % 0.0 mm
10:40 13.9 °C 9.6 °C 1021.2 hPa East 14.5 km/h 19.3 km/h 75 % 0.0 mm
10:45 14.0 °C 9.6 °C 1021.2 hPa ENE 14.8 km/h 14.8 km/h 75 % 0.0 mm
10:50 14.1 °C 9.7 °C 1021.6 hPa East 16.7 km/h 16.7 km/h 75 % 0.0 mm
10:55 14.1 °C 9.7 °C 1021.6 hPa ENE 14.8 km/h 14.8 km/h 75 % 0.0 mm
11:00 14.2 °C 9.8 °C 1021.6 hPa ESE 14.5 km/h 14.5 km/h 75 % 0.0 mm
11:05 14.2 °C 9.6 °C 1021.6 hPa East 14.5 km/h 19.3 km/h 74 % 0.0 mm
11:10 14.1 °C 9.6 °C 1021.6 hPa East 14.5 km/h 22.5 km/h 74 % 0.0 mm
11:15 14.2 °C 9.8 °C 1021.6 hPa East 14.5 km/h 20.9 km/h 75 % 0.0 mm
11:20 14.2 °C 9.8 °C 1021.6 hPa East 20.9 km/h 20.9 km/h 75 % 0.0 mm
11:25 14.3 °C 10.1 °C 1021.6 hPa East 20.4 km/h 20.4 km/h 76 % 0.0 mm
11:30 14.3 °C 9.9 °C 1021.6 hPa East 22.2 km/h 22.2 km/h 75 % 0.0 mm
11:35 14.3 °C 9.7 °C 1021.6 hPa East 20.9 km/h 24.1 km/h 74 % 0.0 mm
11:40 14.3 °C 9.6 °C 1021.6 hPa East 19.3 km/h 22.5 km/h 73 % 0.0 mm
11:45 14.3 °C 9.8 °C 1021.6 hPa East 20.4 km/h 20.4 km/h 74 % 0.0 mm
11:50 14.4 °C 9.6 °C 1021.6 hPa East 14.5 km/h 22.5 km/h 73 % 0.0 mm
11:55 14.4 °C 9.7 °C 1021.6 hPa ESE 20.4 km/h 20.4 km/h 73 % 0.0 mm
12:00 14.5 °C 9.7 °C 1021.6 hPa ESE 16.1 km/h 22.5 km/h 73 % 0.0 mm
12:05 14.5 °C 9.5 °C 1021.6 hPa ESE 19.3 km/h 22.5 km/h 72 % 0.0 mm
12:10 14.6 °C 9.6 °C 1021.6 hPa ESE 18.5 km/h 18.5 km/h 72 % 0.0 mm
12:15 14.7 °C 9.7 °C 1021.6 hPa East 20.4 km/h 20.4 km/h 72 % 0.0 mm
12:20 14.7 °C 9.9 °C 1021.6 hPa East 20.4 km/h 20.4 km/h 73 % 0.0 mm
12:25 14.6 °C 9.4 °C 1021.6 hPa East 14.5 km/h 24.1 km/h 71 % 0.0 mm
12:30 14.7 °C 9.3 °C 1021.2 hPa East 14.8 km/h 14.8 km/h 70 % 0.0 mm
12:35 14.7 °C 9.3 °C 1021.2 hPa East 14.8 km/h 14.8 km/h 70 % 0.0 mm
12:40 14.8 °C 9.2 °C 1021.2 hPa ESE 18.5 km/h 18.5 km/h 69 % 0.0 mm
12:45 14.9 °C 9.4 °C 1021.2 hPa East 12.9 km/h 14.5 km/h 70 % 0.0 mm
12:50 14.9 °C 9.2 °C 1021.2 hPa ESE 13.0 km/h 13.0 km/h 69 % 0.0 mm
12:55 14.9 °C 9.3 °C 1021.2 hPa East 9.7 km/h 14.5 km/h 69 % 0.0 mm
13:00 14.9 °C 9.1 °C 1021.2 hPa ESE 12.9 km/h 12.9 km/h 68 % 0.0 mm
13:05 15.0 °C 9.1 °C 1021.2 hPa ESE 11.3 km/h 20.9 km/h 68 % 0.0 mm
13:10 15.0 °C 9.3 °C 1020.9 hPa ESE 17.7 km/h 17.7 km/h 69 % 0.0 mm
13:15 15.0 °C 9.3 °C 1020.9 hPa SE 17.7 km/h 17.7 km/h 69 % 0.0 mm
13:20 14.9 °C 9.7 °C 1020.9 hPa SE 19.3 km/h 19.3 km/h 71 % 0.0 mm
13:25 14.8 °C 9.6 °C 1020.9 hPa SE 19.3 km/h 22.5 km/h 71 % 0.0 mm
13:30 14.8 °C 9.8 °C 1020.9 hPa ESE 22.2 km/h 22.2 km/h 72 % 0.0 mm
13:35 14.7 °C 9.7 °C 1020.9 hPa SE 16.1 km/h 20.9 km/h 72 % 0.0 mm
13:40 14.8 °C 10.0 °C 1020.9 hPa SE 19.3 km/h 19.3 km/h 73 % 0.0 mm
13:45 14.7 °C 9.7 °C 1020.5 hPa SE 20.4 km/h 20.4 km/h 72 % 0.0 mm
13:50 14.7 °C 9.9 °C 1020.5 hPa SE 20.4 km/h 20.4 km/h 73 % 0.0 mm
13:55 14.7 °C 10.2 °C 1020.5 hPa SE 19.3 km/h 22.5 km/h 74 % 0.0 mm
14:00 14.7 °C 10.1 °C 1020.5 hPa SE 19.3 km/h 22.5 km/h 74 % 0.0 mm
14:05 14.7 °C 10.3 °C 1020.5 hPa SE 19.3 km/h 22.5 km/h 75 % 0.0 mm
14:10 14.7 °C 10.3 °C 1020.5 hPa ESE 20.9 km/h 20.9 km/h 75 % 0.0 mm
14:15 14.6 °C 10.0 °C 1020.5 hPa ESE 24.1 km/h 24.1 km/h 74 % 0.0 mm
14:20 14.6 °C 10.0 °C 1020.5 hPa SE 18.5 km/h 18.5 km/h 74 % 0.0 mm
14:25 14.7 °C 10.1 °C 1020.5 hPa SE 20.4 km/h 20.4 km/h 74 % 0.0 mm
14:30 14.7 °C 9.9 °C 1020.5 hPa SE 20.4 km/h 20.4 km/h 73 % 0.0 mm
14:35 14.7 °C 9.9 °C 1020.5 hPa SE 16.1 km/h 19.3 km/h 73 % 0.0 mm
14:40 14.7 °C 9.9 °C 1020.2 hPa SE 18.5 km/h 18.5 km/h 73 % 0.0 mm
14:45 14.7 °C 9.7 °C 1020.2 hPa SE 14.5 km/h 19.3 km/h 72 % 0.0 mm
14:50 14.7 °C 10.1 °C 1020.2 hPa SE 18.5 km/h 18.5 km/h 74 % 0.0 mm
14:55 14.7 °C 10.1 °C 1020.2 hPa SE 18.5 km/h 18.5 km/h 74 % 0.0 mm
15:00 14.7 °C 10.2 °C 1020.2 hPa SE 14.5 km/h 19.3 km/h 74 % 0.0 mm
15:05 14.7 °C 10.3 °C 1020.2 hPa SE 14.5 km/h 19.3 km/h 75 % 0.0 mm
15:10 14.7 °C 10.3 °C 1020.2 hPa SE 18.5 km/h 18.5 km/h 75 % 0.0 mm
15:15 14.7 °C 10.3 °C 1020.2 hPa SE 14.5 km/h 20.9 km/h 75 % 0.0 mm
15:20 14.7 °C 10.1 °C 1020.2 hPa SE 18.5 km/h 18.5 km/h 74 % 0.0 mm
15:25 14.7 °C 10.1 °C 1020.2 hPa ESE 22.2 km/h 22.2 km/h 74 % 0.0 mm
15:30 14.7 °C 10.3 °C 1020.2 hPa ESE 16.1 km/h 20.9 km/h 75 % 0.0 mm
15:35 14.8 °C 10.4 °C 1020.2 hPa ESE 18.5 km/h 18.5 km/h 75 % 0.0 mm
15:40 14.8 °C 10.4 °C 1020.2 hPa SE 20.4 km/h 20.4 km/h 75 % 0.0 mm
15:45 14.8 °C 10.6 °C 1020.2 hPa SE 19.3 km/h 22.5 km/h 76 % 0.0 mm
15:50 14.8 °C 10.8 °C 1020.2 hPa SE 18.5 km/h 18.5 km/h 77 % 0.0 mm
15:55 14.8 °C 10.6 °C 1020.2 hPa SE 18.5 km/h 18.5 km/h 76 % 0.0 mm
16:00 14.8 °C 10.6 °C 1020.2 hPa SE 19.3 km/h 22.5 km/h 76 % 0.0 mm
16:05 14.8 °C 10.8 °C 1020.2 hPa SE 18.5 km/h 18.5 km/h 77 % 0.0 mm
16:10 14.8 °C 10.6 °C 1020.2 hPa SE 19.3 km/h 19.3 km/h 76 % 0.0 mm
16:15 14.8 °C 10.8 °C 1020.2 hPa SE 19.3 km/h 20.9 km/h 77 % 0.0 mm
16:20 14.8 °C 10.8 °C 1020.2 hPa SE 18.5 km/h 18.5 km/h 77 % 0.0 mm
16:25 14.7 °C 10.7 °C 1020.2 hPa SE 18.5 km/h 18.5 km/h 77 % 0.0 mm
16:30 14.7 °C 10.7 °C 1020.2 hPa ESE 20.4 km/h 20.4 km/h 77 % 0.0 mm
16:35 14.8 °C 11.0 °C 1020.2 hPa ESE 20.4 km/h 20.4 km/h 78 % 0.0 mm
16:40 14.7 °C 10.7 °C 1020.2 hPa SE 22.2 km/h 22.2 km/h 77 % 0.0 mm
16:45 14.7 °C 10.7 °C 1020.2 hPa SE 20.4 km/h 20.4 km/h 77 % 0.0 mm
16:50 14.7 °C 10.7 °C 1020.2 hPa ESE 20.4 km/h 20.4 km/h 77 % 0.0 mm
16:55 14.7 °C 10.7 °C 1020.5 hPa ESE 18.5 km/h 18.5 km/h 77 % 0.0 mm
17:00 14.7 °C 10.7 °C 1020.2 hPa SE 19.3 km/h 19.3 km/h 77 % 0.0 mm
17:05 14.7 °C 10.7 °C 1020.2 hPa SE 20.4 km/h 20.4 km/h 77 % 0.0 mm
17:10 14.7 °C 10.7 °C 1020.5 hPa SE 18.5 km/h 18.5 km/h 77 % 0.0 mm
17:15 14.7 °C 10.9 °C 1020.5 hPa ESE 18.5 km/h 18.5 km/h 78 % 0.0 mm
17:20 14.7 °C 10.9 °C 1020.5 hPa ESE 18.5 km/h 18.5 km/h 78 % 0.0 mm
17:25 14.6 °C 10.6 °C 1020.5 hPa ESE 18.5 km/h 18.5 km/h 77 % 0.0 mm
17:30 14.7 °C 10.9 °C 1020.5 hPa SE 18.5 km/h 18.5 km/h 78 % 0.0 mm
17:35 14.7 °C 10.9 °C 1020.5 hPa ESE 19.3 km/h 19.3 km/h 78 % 0.0 mm
17:40 14.6 °C 10.4 °C 1020.5 hPa SE 18.5 km/h 18.5 km/h 76 % 0.0 mm
17:45 14.6 °C 10.4 °C 1020.5 hPa SE 16.7 km/h 16.7 km/h 76 % 0.0 mm
17:50 14.7 °C 10.7 °C 1020.5 hPa ESE 18.5 km/h 18.5 km/h 77 % 0.0 mm
17:55 14.7 °C 10.7 °C 1020.5 hPa ESE 18.5 km/h 18.5 km/h 77 % 0.0 mm
18:00 14.7 °C 10.5 °C 1020.5 hPa ESE 18.5 km/h 18.5 km/h 76 % 0.0 mm
18:05 14.6 °C 10.4 °C 1020.5 hPa ESE 16.7 km/h 16.7 km/h 76 % 0.0 mm
18:10 14.6 °C 10.2 °C 1020.5 hPa East 18.5 km/h 18.5 km/h 75 % 0.0 mm
18:15 14.6 °C 10.2 °C 1020.5 hPa East 17.7 km/h 17.7 km/h 75 % 0.0 mm
18:20 14.7 °C 10.7 °C 1020.5 hPa East 20.4 km/h 20.4 km/h 77 % 0.0 mm
18:25 14.6 °C 10.6 °C 1020.5 hPa ENE 18.5 km/h 18.5 km/h 77 % 0.0 mm
18:30 14.4 °C 10.6 °C 1020.9 hPa ENE 18.5 km/h 18.5 km/h 78 % 0.0 mm
18:35 14.3 °C 10.5 °C 1020.9 hPa ENE 18.5 km/h 18.5 km/h 78 % 0.0 mm
18:40 14.3 °C 10.5 °C 1020.9 hPa ENE 17.7 km/h 17.7 km/h 78 % 0.0 mm
18:45 14.2 °C 10.4 °C 1020.9 hPa ENE 18.5 km/h 18.5 km/h 78 % 0.0 mm
18:50 14.2 °C 10.2 °C 1020.9 hPa East 16.7 km/h 16.7 km/h 77 % 0.0 mm
18:55 14.2 °C 10.2 °C 1020.9 hPa East 16.7 km/h 16.7 km/h 77 % 0.0 mm
19:00 14.2 °C 10.2 °C 1020.9 hPa ENE 14.8 km/h 14.8 km/h 77 % 0.0 mm
19:05 14.3 °C 10.3 °C 1021.2 hPa East 18.5 km/h 18.5 km/h 77 % 0.0 mm
19:10 14.3 °C 10.3 °C 1021.2 hPa East 16.7 km/h 16.7 km/h 77 % 0.0 mm
19:15 14.3 °C 10.3 °C 1021.2 hPa ENE 14.8 km/h 14.8 km/h 77 % 0.0 mm
19:20 14.3 °C 10.2 °C 1021.2 hPa ENE 16.7 km/h 16.7 km/h 76 % 0.0 mm
19:25 14.3 °C 10.3 °C 1021.2 hPa East 14.8 km/h 14.8 km/h 77 % 0.0 mm
19:30 14.3 °C 10.1 °C 1021.2 hPa ENE 14.8 km/h 14.8 km/h 76 % 0.0 mm
19:35 14.3 °C 10.3 °C 1021.2 hPa ENE 16.7 km/h 16.7 km/h 77 % 0.0 mm
19:40 14.2 °C 10.2 °C 1021.2 hPa ENE 16.7 km/h 16.7 km/h 77 % 0.0 mm
19:45 14.0 °C 10.1 °C 1021.6 hPa ENE 13.0 km/h 13.0 km/h 77 % 0.0 mm
19:50 13.9 °C 10.1 °C 1021.6 hPa ENE 11.1 km/h 11.1 km/h 78 % 0.0 mm
19:55 13.8 °C 10.1 °C 1021.6 hPa ENE 13.0 km/h 13.0 km/h 78 % 0.0 mm
20:00 13.9 °C 10.1 °C 1021.6 hPa ENE 13.0 km/h 13.0 km/h 78 % 0.0 mm
20:05 13.8 °C 10.0 °C 1021.6 hPa ENE 8.0 km/h 8.0 km/h 78 % 0.0 mm
20:10 13.6 °C 9.8 °C 1021.9 hPa NE 7.4 km/h 7.4 km/h 78 % 0.0 mm
20:16 13.3 °C 9.3 °C 1021.9 hPa North 9.3 km/h 9.3 km/h 77 % 0.0 mm
20:20 12.9 °C 9.2 °C 1021.9 hPa North 11.1 km/h 11.1 km/h 78 % 0.0 mm
20:26 12.6 °C 9.1 °C 1021.9 hPa NNE 11.1 km/h 11.1 km/h 79 % 0.0 mm
20:31 12.4 °C 9.1 °C 1021.9 hPa North 9.3 km/h 9.3 km/h 80 % 0.0 mm
20:36 12.3 °C 8.9 °C 1021.9 hPa North 14.8 km/h 14.8 km/h 80 % 0.0 mm
20:41 12.2 °C 9.0 °C 1022.2 hPa North 11.1 km/h 11.1 km/h 81 % 0.0 mm
20:46 12.1 °C 8.9 °C 1022.2 hPa North 13.0 km/h 13.0 km/h 81 % 0.0 mm
20:51 12.0 °C 8.8 °C 1022.2 hPa North 9.3 km/h 9.3 km/h 81 % 0.0 mm
20:56 11.9 °C 8.9 °C 1022.2 hPa North 13.0 km/h 13.0 km/h 82 % 0.0 mm
21:01 11.8 °C 8.8 °C 1022.2 hPa North 11.1 km/h 11.1 km/h 82 % 0.0 mm
21:06 11.7 °C 8.7 °C 1022.2 hPa NNW 13.0 km/h 13.0 km/h 82 % 0.0 mm
21:11 11.7 °C 8.7 °C 1022.2 hPa NNE 12.9 km/h 12.9 km/h 82 % 0.0 mm
21:16 11.6 °C 8.6 °C 1022.2 hPa NNE 13.0 km/h 13.0 km/h 82 % 0.0 mm
21:21 11.5 °C 8.7 °C 1022.6 hPa North 14.8 km/h 14.8 km/h 83 % 0.0 mm
21:26 11.4 °C 8.7 °C 1022.6 hPa North 11.1 km/h 11.1 km/h 83 % 0.0 mm
21:31 11.4 °C 8.6 °C 1022.6 hPa North 11.1 km/h 11.1 km/h 83 % 0.0 mm
21:36 11.3 °C 8.6 °C 1022.6 hPa North 11.1 km/h 11.1 km/h 83 % 0.0 mm
21:41 11.3 °C 8.5 °C 1022.6 hPa North 14.8 km/h 14.8 km/h 83 % 0.0 mm
21:46 11.2 °C 8.4 °C 1022.6 hPa North 13.0 km/h 13.0 km/h 83 % 0.0 mm
21:51 11.2 °C 8.4 °C 1022.6 hPa North 14.8 km/h 14.8 km/h 83 % 0.0 mm
21:56 11.2 °C 8.4 °C 1022.6 hPa North 13.0 km/h 13.0 km/h 83 % 0.0 mm
22:01 11.1 °C 8.3 °C 1022.6 hPa North 13.0 km/h 13.0 km/h 83 % 0.0 mm
22:06 11.1 °C 8.3 °C 1022.6 hPa NNE 13.0 km/h 13.0 km/h 83 % 0.0 mm
22:11 11.1 °C 8.3 °C 1022.6 hPa North 11.3 km/h 11.3 km/h 83 % 0.0 mm
22:16 11.1 °C 8.3 °C 1022.6 hPa North 16.7 km/h 16.7 km/h 83 % 0.0 mm
22:21 11.0 °C 8.2 °C 1022.6 hPa North 13.0 km/h 13.0 km/h 83 % 0.0 mm
22:26 11.0 °C 8.2 °C 1022.6 hPa North 14.8 km/h 14.8 km/h 83 % 0.0 mm
22:31 11.0 °C 8.2 °C 1022.6 hPa North 14.8 km/h 14.8 km/h 83 % 0.0 mm
22:36 10.9 °C 8.2 °C 1022.9 hPa North 13.0 km/h 13.0 km/h 83 % 0.0 mm
22:41 10.9 °C 8.1 °C 1022.9 hPa North 13.0 km/h 13.0 km/h 83 % 0.0 mm
22:46 10.8 °C 8.1 °C 1022.9 hPa North 16.7 km/h 16.7 km/h 83 % 0.0 mm
22:51 10.8 °C 8.1 °C 1022.9 hPa North 14.8 km/h 14.8 km/h 83 % 0.0 mm
22:56 10.9 °C 8.1 °C 1022.9 hPa North 14.8 km/h 14.8 km/h 83 % 0.0 mm
23:01 10.9 °C 8.2 °C 1023.2 hPa North 18.5 km/h 18.5 km/h 83 % 0.0 mm
23:06 10.9 °C 8.0 °C 1023.2 hPa North 14.8 km/h 14.8 km/h 82 % 0.0 mm
23:11 11.0 °C 8.1 °C 1023.2 hPa NNW 14.8 km/h 14.8 km/h 82 % 0.0 mm
23:16 11.0 °C 8.1 °C 1023.2 hPa North 16.7 km/h 16.7 km/h 82 % 0.0 mm
23:21 11.0 °C 8.1 °C 1023.2 hPa North 16.1 km/h 16.1 km/h 82 % 0.0 mm
23:26 11.0 °C 8.1 °C 1023.2 hPa North 14.8 km/h 14.8 km/h 82 % 0.0 mm
23:31 11.0 °C 8.1 °C 1023.6 hPa NNE 13.0 km/h 13.0 km/h 82 % 0.0 mm
23:36 11.0 °C 8.1 °C 1023.6 hPa North 16.1 km/h 16.1 km/h 82 % 0.0 mm
23:41 11.0 °C 8.1 °C 1023.6 hPa North 18.5 km/h 18.5 km/h 82 % 0.0 mm
23:46 11.1 °C 8.1 °C 1023.6 hPa North 14.8 km/h 14.8 km/h 82 % 0.0 mm
23:51 11.1 °C 7.9 °C 1023.6 hPa North 14.5 km/h 14.5 km/h 81 % 0.0 mm
23:56 11.2 °C 8.0 °C 1023.6 hPa North 18.5 km/h 18.5 km/h 81 % 0.0 mm
Puerto Banus, Marbella
Elogios de Weather Underground - 2 mb

Guión original por  Jim McMurry - jmcmurry@mwt.net Adaptado para la plantilla por  Wim van der Kuil - Leuven-Template.eu

Usted encontrará nuestra información del tiempo también en:

Weather Underground

Iberian Peninsula Weather Network